Wind_Speed
17 11 11 13 13 16 18 20 21 18 19 19 16 13 13 11 8 8 12 14 15 12 11 12 12 12 10 10 12 12 16 17 17 18 19 21 22 23 24 23 24 25 25 26 27 27 27 27 27 27 27 28 29 28 28 29 29 30 29 27 28 27 25 24 24 23 23 23 23 22 21 19 18 17 16 15 14 13 13 14 15 15 13 11 10 9
16 12 13 17 18 19 20 22 22 20 20 20 16 13 11 10 9 11 15 13 17 12 10 13 13 12 13 11 10 9 13 15 17 18 18 20 21 22 24 24 24 24 24 25 27 28 28 28 28 28 28 29 30 31 31 31 30 31 31 29 29 30 28 26 26 24 23 24 23 23 22 20 16 16 16 15 13 13 13 14 15 14 12 11 10 9
13 13 17 20 19 20 20 20 22 22 21 18 15 13 10 9 9 12 16 14 16 10 9 15 13 11 14 12 13 15 16 15 19 20 18 20 21 21 23 24 24 24 25 26 28 29 29 30 30 29 30 31 31 32 31 32 32 31 32 31 30 30 30 28 26 26 25 24 24 22 20 19 15 14 14 13 13 12 12 13 14 14 13 12 10 9
11 13 18 20 19 20 21 21 22 21 18 15 13 12 11 12 10 8 12 13 16 11 9 13 12 10 12 13 15 19 21 19 20 21 20 21 21 21 22 24 25 25 26 26 27 30 31 31 32 32 33 32 32 33 33 33 33 33 33 33 31 31 31 30 28 27 25 24 23 21 18 16 14 14 13 12 12 12 10 12 14 14 13 11 10 9
13 14 18 20 20 21 21 21 22 17 13 16 17 15 13 14 13 9 10 10 14 12 9 9 8 8 10 13 13 17 21 21 20 21 21 22 23 22 22 24 25 25 26 27 28 30 32 33 33 35 34 34 34 35 35 35 35 35 34 33 33 32 30 31 30 28 26 24 24 22 19 16 15 15 15 13 13 12 12 13 15 15 12 11 10 9
16 16 18 20 21 22 21 19 20 16 11 15 19 19 19 17 15 13 13 11 9 9 9 9 8 7 10 14 13 14 17 17 18 19 19 20 23 24 22 23 25 26 27 29 29 30 32 33 34 35 35 34 34 36 36 36 35 35 34 34 34 33 31 30 30 29 27 25 24 24 23 21 19 19 18 16 14 13 14 15 15 14 11 10 9 8
13 18 18 18 20 22 21 17 20 19 13 11 16 20 22 21 18 15 16 13 8 8 10 11 9 6 8 13 14 13 14 15 16 15 17 21 22 24 24 24 25 26 27 28 30 30 32 34 35 36 37 36 35 35 35 35 34 34 34 34 34 34 33 31 30 30 29 27 26 25 25 23 22 21 19 17 15 15 15 15 14 13 10 8 8 8
12 19 19 19 20 19 18 16 18 21 15 11 14 19 21 23 22 19 16 12 8 8 11 14 12 8 8 10 12 14 14 15 15 14 16 20 22 24 24 25 25 25 26 28 30 31 32 35 36 37 38 38 35 34 35 35 35 35 34 34 35 35 34 32 31 30 30 28 27 27 26 23 22 21 19 17 17 17 16 14 12 10 9 9 10 9
13 18 20 20 18 14 15 16 18 21 17 13 16 18 19 21 21 20 15 11 10 9 8 12 13 9 7 7 10 14 15 16 16 18 18 19 24 25 23 24 25 26 27 28 30 32 32 34 36 37 38 37 35 33 35 35 35 35 35 34 34 35 35 33 31 30 30 29 28 27 27 25 23 21 19 17 17 17 16 13 11 10 12 12 10 10
13 17 20 18 15 13 16 18 20 21 16 15 17 17 17 18 19 18 14 12 12 10 8 11 13 8 7 8 10 12 14 15 16 17 17 20 26 27 24 25 26 27 28 28 28 30 32 32 33 34 35 36 36 35 34 35 35 35 35 34 34 35 35 34 32 31 30 29 29 28 27 27 25 23 20 18 17 16 15 15 14 14 16 14 11 11
15 17 18 15 13 14 16 18 19 20 18 16 16 16 16 16 14 13 12 12 11 8 11 15 15 11 8 9 11 11 11 13 15 14 15 19 25 26 26 27 26 25 26 27 27 28 30 30 29 31 33 36 37 35 35 35 36 36 36 36 35 35 35 34 33 32 30 29 29 29 28 27 27 25 23 20 18 16 15 16 17 17 18 17 13 12
19 17 13 13 18 18 16 15 17 19 20 18 14 13 12 11 10 10 10 12 10 9 12 17 18 16 11 9 11 13 15 17 16 15 17 19 21 25 27 27 26 23 22 23 25 27 30 31 32 33 35 37 38 37 37 37 37 36 37 37 37 36 35 35 34 33 32 30 29 29 29 27 27 26 25 23 21 18 17 17 18 19 19 18 15 14
16 17 14 14 19 22 16 12 14 16 17 15 13 11 10 9 8 9 9 9 10 10 13 17 18 15 11 11 13 14 17 19 16 15 18 19 21 26 27 25 26 27 26 26 26 28 31 34 36 37 38 39 41 41 39 38 37 37 38 38 38 38 37 36 36 35 33 32 31 30 29 28 27 27 25 24 23 21 21 19 19 20 19 18 18 17
11 15 19 16 14 19 18 12 11 12 12 14 13 11 10 9 8 10 9 9 10 11 14 19 17 13 11 11 15 17 16 17 17 17 19 22 23 24 26 27 28 29 29 28 30 32 34 37 39 38 40 42 44 43 42 40 38 38 38 39 39 38 37 36 37 37 35 34 32 31 30 29 28 28 27 25 23 22 22 21 20 20 20 20 19 19
12 12 16 17 11 14 19 15 12 12 12 14 14 13 11 10 9 9 9 9 10 10 13 18 14 11 10 7 11 18 17 17 18 20 20 21 23 24 28 32 29 28 30 30 33 35 37 40 40 39 41 43 44 44 43 42 40 39 39 39 40 39 38 37 37 38 37 36 34 32 31 30 29 29 27 26 25 23 23 23 22 21 20 20 20 19
14 11 13 19 16 15 18 17 15 14 12 12 13 13 13 12 10 8 10 12 11 9 10 12 10 8 8 7 7 11 14 17 18 20 20 18 23 28 29 33 32 30 31 31 33 37 38 40 41 41 42 42 44 45 43 43 43 42 41 41 41 40 39 38 38 39 39 38 36 34 33 31 30 29 28 27 26 25 24 23 23 23 22 21 21 20
12 10 12 20 21 20 18 16 18 16 11 9 12 14 13 14 12 9 12 13 11 10 9 9 10 9 9 10 11 11 11 14 15 17 19 19 25 27 23 32 34 31 32 32 34 38 40 40 40 41 42 41 44 45 45 45 45 45 44 42 42 41 40 40 39 39 40 39 37 36 35 33 32 31 30 29 27 26 25 25 24 24 24 24 23 22
10 9 13 19 21 22 22 18 19 20 17 10 10 13 12 15 14 9 9 10 10 11 9 11 13 11 10 9 13 17 16 14 14 15 16 19 23 22 22 36 36 33 34 33 34 36 37 38 39 40 41 40 42 46 47 47 46 46 45 43 43 42 41 41 40 39 40 40 39 37 36 35 34 33 31 30 28 27 26 26 26 26 26 26 25 24
10 8 10 18 18 19 21 18 15 20 24 19 12 12 12 12 12 10 9 9 10 10 8 12 14 12 12 9 11 18 19 16 14 14 15 17 19 18 21 36 38 36 36 34 32 32 33 34 36 37 38 39 41 45 47 48 47 46 45 44 43 43 43 41 40 39 40 41 40 38 38 37 35 34 32 31 29 28 27 28 28 28 28 28 27 26
10 8 7 14 17 16 16 14 13 14 20 21 17 14 11 9 9 10 9 8 9 10 10 12 13 10 10 11 11 15 17 17 16 14 15 17 19 20 24 36 41 38 37 35 32 32 33 34 34 35 36 38 39 43 45 46 47 47 46 45 44 43 43 42 40 39 40 41 41 39 38 38 36 35 33 32 31 30 30 30 30 30 30 30 28 28
10 8 8 9 14 16 12 12 15 13 13 15 15 14 12 9 9 10 11 10 9 9 8 9 11 9 8 9 12 12 10 15 15 13 13 14 18 22 25 31 38 35 32 33 31 30 31 31 31 32 34 36 37 39 42 43 44 45 44 45 45 44 43 43 41 40 40 40 41 40 39 38 38 36 34 33 32 32 32 32 32 32 32 31 30 30
9 8 9 9 10 13 13 15 18 17 14 13 12 14 14 11 10 11 11 11 11 10 9 9 9 8 8 8 9 9 7 14 15 12 13 17 21 25 26 22 32 34 31 33 31 27 28 29 30 29 31 35 36 38 40 42 43 44 44 45 45 44 43 44 42 41 40 40 40 40 40 39 38 37 36 34 34 34 34 34 34 33 33 32 32 31
11 8 9 11 10 11 15 18 20 20 19 16 14 14 15 14 12 10 10 10 10 11 12 12 11 8 7 5 6 9 8 12 16 12 11 18 24 28 31 24 34 37 34 32 28 25 26 30 33 32 33 37 38 39 41 41 42 44 44 45 45 44 44 43 42 41 40 40 40 40 39 39 38 38 37 36 36 36 35 35 34 34 34 33 33 33
12 8 9 10 9 11 15 16 19 20 19 16 14 14 15 16 17 14 10 9 10 13 14 12 10 9 7 4 5 8 7 10 15 15 13 16 24 32 34 27 34 37 34 32 29 28 29 30 33 35 37 41 42 41 41 41 42 43 44 44 44 45 45 43 41 41 40 40 40 40 39 39 38 37 37 37 38 37 36 35 35 35 34 34 34 35
12 8 9 9 8 10 13 13 16 17 15 12 12 15 17 20 23 20 14 9 9 14 16 12 8 9 9 7 7 7 9 12 14 15 15 16 19 27 26 26 36 35 33 34 34 34 33 31 34 38 41 44 44 42 41 42 42 42 43 44 42 43 43 42 40 40 40 40 40 40 40 39 39 38 38 38 38 38 37 35 34 34 34 34 36 37
12 9 10 10 10 11 11 11 11 12 12 11 13 18 20 22 24 19 13 11 9 10 13 11 8 8 10 12 12 13 12 10 8 11 15 18 14 15 15 27 38 35 32 34 35 36 34 32 34 38 41 43 44 43 43 44 43 42 42 42 41 40 41 40 39 39 40 41 41 41 41 40 40 40 39 38 38 37 37 35 33 33 33 34 35 36
11 8 12 13 12 12 10 10 10 11 13 14 17 21 21 22 23 18 12 12 11 9 9 9 9 11 11 12 15 17 15 9 8 10 13 15 10 12 12 16 29 34 33 32 33 34 33 32 34 37 39 42 43 43 43 44 43 41 41 41 40 38 39 40 39 39 39 40 41 41 41 41 41 40 39 38 37 37 35 34 34 33 34 34 32 32
8 9 16 18 18 19 14 14 16 15 16 17 19 22 21 22 23 19 15 15 12 10 11 10 9 11 14 13 11 11 12 12 9 9 11 12 9 12 17 15 22 30 30 29 29 29 29 29 32 36 37 39 41 42 41 42 43 41 40 41 40 38 38 40 40 40 40 39 39 40 40 40 40 39 38 37 37 37 36 34 34 33 35 35 33 32
7 10 16 18 22 24 22 20 20 17 16 17 19 20 21 22 23 22 19 18 15 11 11 11 11 10 13 16 17 11 8 11 10 10 14 16 15 13 12 12 16 20 23 26 28 29 28 27 28 32 35 35 38 40 39 39 41 40 39 41 41 38 38 39 41 41 41 39 38 39 39 39 38 37 37 37 37 37 36 35 34 34 34 35 34 33
7 8 13 16 18 21 24 24 23 20 18 18 20 21 20 21 23 23 21 22 21 19 17 15 12 12 13 15 19 17 15 15 11 11 16 19 21 19 13 15 18 15 16 21 25 26 26 27 27 29 32 33 36 39 40 39 40 41 39 40 42 40 38 39 41 41 42 41 39 38 37 37 37 36 36 37 37 36 36 36 34 34 34 34 33 33
8 7 10 13 12 15 21 24 25 23 20 20 20 20 20 22 24 24 21 21 20 19 20 19 14 13 12 13 16 18 20 22 15 10 15 20 24 25 20 22 27 24 22 22 24 25 24 26 29 30 31 34 36 39 40 40 40 41 39 38 42 42 39 39 41 42 42 42 39 38 37 35 35 36 36 37 36 36 36 35 35 34 33 33 32 33
11 8 9 11 9 11 17 20 24 24 21 22 22 21 23 23 21 18 16 16 17 16 16 17 14 11 10 11 14 14 16 19 17 14 17 18 22 26 25 26 27 28 31 29 25 25 26 27 30 32 34 36 37 38 41 40 40 41 40 39 41 42 39 39 42 42 42 42 40 39 38 36 36 35 35 35 35 35 35 34 34 34 33 33 32 32
12 10 9 10 9 11 15 17 17 17 17 18 19 21 23 21 19 16 12 16 21 17 13 12 10 7 7 10 12 13 14 16 15 16 20 20 19 20 21 25 27 25 30 32 29 29 30 31 33 33 33 35 36 38 40 41 41 42 42 41 41 41 39 39 42 43 42 42 40 39 39 37 36 34 33 32 31 32 32 32 32 32 32 31 30 31
13 12 10 9 8 11 15 16 14 14 14 12 11 16 20 21 22 19 18 20 21 16 13 13 12 11 10 10 11 12 13 13 12 16 21 22 19 15 15 21 27 27 26 30 35 35 32 33 34 31 30 31 32 34 37 39 40 40 40 39 39 40 39 39 41 43 43 42 40 39 39 37 36 33 31 30 29 29 29 29 29 30 29 27 27 29
14 13 10 8 9 10 11 13 14 14 13 11 10 12 15 19 22 21 21 22 19 17 14 9 9 12 12 12 12 12 15 20 20 18 20 24 25 22 22 24 26 27 25 24 32 37 35 33 33 31 28 28 29 31 34 38 38 38 39 39 39 41 40 39 40 42 42 42 40 39 38 36 34 31 29 29 28 27 28 29 29 29 28 27 26 27
12 12 10 9 10 9 9 12 12 11 10 11 12 13 12 15 19 20 21 21 19 20 14 6 7 8 6 9 19 21 23 27 26 23 22 26 30 29 29 28 26 25 24 22 25 31 32 30 31 30 28 28 29 30 32 35 36 36 38 39 40 41 41 39 40 41 42 42 41 40 38 36 33 30 29 29 27 27 28 29 28 28 27 26 25 25
9 8 9 10 11 9 10 11 10 9 11 12 12 10 6 5 7 8 10 12 13 15 10 6 8 10 12 10 12 15 19 22 18 18 25 30 33 35 36 34 32 30 29 28 28 28 29 29 29 29 28 27 29 30 30 33 35 35 37 40 40 41 41 40 40 41 41 42 40 39 37 35 32 30 30 29 27 27 27 26 27 27 25 23 22 24
9 8 7 9 10 10 9 10 10 11 12 10 7 4 4 3 2 4 3 4 5 7 6 7 8 9 12 13 10 10 10 10 8 11 23 32 34 35 37 37 36 37 36 34 35 36 34 34 32 31 31 30 29 30 30 33 35 36 38 41 42 42 42 41 40 40 40 39 38 36 34 32 31 30 29 28 27 26 24 22 23 23 22 20 18 20
14 9 6 8 9 10 10 10 10 10 9 7 6 5 4 2 1 4 2 4 3 8 9 9 8 8 9 11 12 11 8 6 4 6 19 28 28 27 31 35 38 40 39 38 40 40 37 37 35 33 33 33 31 31 32 33 36 39 40 42 43 43 42 40 37 38 39 35 32 31 30 29 30 29 27 25 24 23 21 21 20 20 21 21 20 20
14 10 8 8 8 9 10 9 8 7 5 7 8 6 5 4 2 1 4 4 5 10 10 10 8 8 9 12 11 8 5 5 7 13 20 22 22 25 28 30 32 35 37 38 40 40 36 36 36 35 35 33 32 32 34 35 38 40 41 41 42 43 43 39 34 33 34 30 28 28 28 28 30 29 25 23 22 22 21 19 19 20 21 21 22 23
11 10 9 10 9 9 9 9 8 7 5 7 7 5 4 5 5 6 5 1 5 8 10 10 9 9 10 11 9 7 9 12 14 22 30 27 22 21 22 21 18 18 25 31 30 26 28 32 33 33 33 31 31 33 35 37 38 39 40 40 40 40 41 38 32 31 31 29 28 28 27 27 28 28 24 21 21 21 19 16 16 18 19 20 21 22
10 8 8 10 11 10 10 9 8 6 5 7 9 9 7 5 6 4 1 3 5 9 11 12 12 13 13 13 11 11 15 18 20 23 26 28 27 23 19 21 16 12 16 23 23 21 24 25 26 28 28 28 31 34 36 38 38 38 39 39 38 38 38 36 34 34 33 31 28 27 26 25 25 25 23 21 19 18 16 16 16 16 17 19 19 19
9 10 10 10 10 9 9 11 9 6 6 9 10 9 7 5 1 4 5 5 7 11 14 14 16 17 17 17 17 17 17 18 21 23 25 27 25 19 13 16 17 7 6 8 17 22 23 23 24 26 26 26 29 33 35 37 38 38 37 37 36 37 37 36 36 36 34 32 29 27 26 26 25 25 24 20 16 15 16 16 15 14 14 16 16 15
5 5 7 7 7 9 10 9 5 2 4 8 8 4 4 5 9 9 7 5 8 12 13 14 17 19 19 20 20 20 18 16 15 17 16 14 10 5 6 8 14 17 10 8 13 16 19 24 25 25 25 27 29 32 34 35 37 36 35 35 36 38 39 38 38 37 35 32 30 28 27 27 27 25 21 18 16 16 16 15 14 13 14 15 14 14
7 6 3 4 4 3 2 1 1 3 3 6 7 8 10 12 12 10 8 7 7 9 10 11 14 17 19 19 19 18 17 15 14 14 12 10 8 3 1 2 7 14 14 13 13 14 17 21 24 25 26 27 30 32 32 34 37 37 36 37 38 40 40 40 39 37 34 32 30 27 26 25 25 23 19 17 16 15 14 13 13 14 15 14 12 12
11 11 6 3 2 4 7 7 7 7 5 7 9 8 10 10 9 9 10 9 8 8 10 12 14 16 19 19 18 18 18 17 15 13 11 9 9 5 3 4 2 9 14 15 16 17 19 21 23 25 26 28 30 32 32 35 39 40 40 39 38 39 39 38 36 34 31 28 26 24 22 22 22 22 19 17 16 14 13 13 13 13 13 12 12 13
9 12 7 3 2 3 4 7 10 12 8 6 10 11 13 15 13 13 12 11 11 13 14 16 18 19 21 21 19 18 18 17 14 13 12 10 7 4 4 8 6 5 12 17 20 20 21 23 25 26 29 30 31 32 35 38 40 39 37 35 34 35 35 34 32 30 28 26 23 21 20 21 21 20 19 17 15 15 15 14 13 12 12 12 14 14
7 11 7 3 4 5 2 3 9 18 18 14 14 15 17 19 19 19 19 18 17 18 19 21 22 23 25 25 23 22 22 21 19 17 15 12 10 7 2 3 4 2 3 11 20 24 25 27 28 30 31 31 31 34 39 39 35 31 30 31 32 33 33 31 29 28 26 25 23 20 20 20 19 18 18 17 15 15 14 13 11 12 12 13 15 16
9 9 6 4 4 6 5 3 4 15 18 18 19 19 18 20 22 23 24 23 22 21 23 25 25 25 26 27 28 29 29 27 25 22 19 16 12 9 7 5 9 8 3 5 15 23 27 29 30 29 29 28 29 34 36 34 30 29 31 33 32 30 29 28 26 25 24 23 21 19 18 17 15 14 15 17 17 16 15 14 14 15 16 16 17 18
7 4 5 3 0 3 4 1 2 8 9 12 17 18 17 18 21 22 23 24 24 23 23 24 25 25 26 28 30 31 31 30 28 27 25 21 15 11 12 11 10 11 11 11 15 21 25 27 28 28 29 29 30 31 31 29 29 29 29 28 25 24 24 24 23 23 22 21 19 18 17 15 13 12 12 15 18 18 17 17 18 18 19 18 18 19
3 3 5 3 1 2 4 4 5 9 11 10 15 17 16 17 19 22 22 22 22 22 23 23 24 24 25 26 28 28 28 27 27 29 29 24 17 14 14 13 12 15 16 16 18 21 24 27 29 29 30 29 29 28 28 26 26 25 24 22 21 20 20 20 22 21 21 20 18 16 16 16 13 11 11 12 16 18 19 19 20 20 19 19 18 18
Wind_Direction
206 210 212 216 217 217 216 220 226 227 231 242 244 233 228 230 224 225 234 202 183 206 207 205 213 205 207 182 166 185 191 194 195 191 188 186 186 186 188 193 193 193 193 193 195 196 195 193 192 192 192 192 192 194 196 196 199 198 194 197 196 191 194 202 205 208 208 209 213 215 216 218 225 224 224 229 218 215 226 225 234 247 253 254 257 261
207 218 217 216 218 221 220 221 226 230 231 239 249 249 236 236 226 220 238 208 177 200 200 202 221 208 208 188 158 204 215 200 201 200 193 188 188 188 189 194 195 195 195 193 193 196 197 194 193 193 192 193 193 195 198 199 200 200 197 198 201 197 195 202 208 210 208 209 212 213 215 214 219 227 225 226 222 218 224 228 234 244 253 257 260 263
209 223 220 216 217 222 226 224 223 228 232 233 243 254 245 237 230 217 235 215 175 196 201 194 215 216 209 188 166 201 217 207 206 205 198 191 190 190 189 193 195 197 198 195 193 196 198 196 195 194 194 195 195 196 198 200 200 202 200 199 203 205 201 201 210 214 210 210 212 213 216 212 209 221 228 225 224 224 226 234 240 242 251 258 259 257
211 221 219 218 217 217 224 224 222 223 229 234 233 244 248 242 237 221 238 218 172 183 213 193 204 220 213 196 186 202 210 209 209 209 204 196 193 194 194 193 195 197 198 197 196 195 198 198 196 196 196 196 195 196 197 200 201 203 204 202 202 207 207 204 208 216 214 211 213 214 213 210 206 213 221 223 226 228 221 229 243 247 250 255 255 246
225 218 214 218 218 217 221 222 224 223 221 231 233 236 243 243 240 228 236 218 167 175 211 201 203 219 218 212 203 203 207 207 205 208 209 201 194 196 199 194 192 197 199 199 201 198 198 199 198 198 197 196 196 198 198 200 201 204 206 204 202 205 210 208 208 214 217 213 212 211 206 204 206 209 212 216 221 222 215 218 236 245 247 252 249 235
232 223 211 215 218 218 220 220 222 223 221 226 229 234 242 247 242 232 235 222 177 180 196 198 219 220 213 223 221 207 207 207 199 201 208 204 196 193 198 197 192 198 202 200 202 201 199 200 200 200 199 198 198 199 201 201 201 204 206 204 202 204 209 212 211 213 216 215 211 209 209 206 206 209 211 212 211 214 217 218 226 238 246 252 245 228
232 227 217 213 216 217 220 222 219 220 228 226 221 226 237 248 246 237 240 231 203 202 197 201 226 237 215 220 224 215 213 212 200 200 208 206 200 195 196 200 198 199 202 201 203 203 201 200 201 201 200 200 200 200 202 202 202 205 206 205 203 204 209 211 211 213 215 215 213 212 216 216 214 215 216 216 211 210 218 220 224 236 244 240 229 217
222 226 224 213 214 217 217 221 218 218 228 232 223 221 225 238 247 243 241 236 218 210 206 204 212 237 232 216 220 218 218 217 203 204 214 206 204 204 201 200 200 202 203 200 201 203 203 201 201 202 202 202 201 201 201 202 204 206 206 207 205 205 208 211 213 214 214 215 216 216 219 220 220 221 222 223 218 216 220 221 223 228 237 236 222 215
218 223 227 216 212 220 221 220 218 219 227 231 229 230 224 226 239 248 249 240 227 223 217 202 199 227 240 215 221 218 217 221 208 206 214 206 203 207 207 202 201 206 206 202 201 202 204 204 203 203 203 202 202 201 202 202 204 206 207 207 207 206 207 212 214 215 216 217 217 219 219 218 219 219 221 223 222 221 219 214 208 205 223 236 217 204
225 220 228 226 214 218 223 222 221 221 226 228 231 238 238 228 227 235 245 248 241 241 243 214 198 218 246 229 228 222 216 221 217 212 213 207 201 199 204 209 208 206 204 204 203 201 202 205 206 206 204 203 202 202 203 204 203 205 207 207 208 207 207 210 214 216 218 218 217 219 219 217 217 216 216 217 217 218 212 201 199 201 213 227 219 202
245 225 221 229 227 225 224 221 221 223 225 227 229 235 243 242 232 224 228 240 246 247 250 236 213 209 233 232 223 222 221 222 220 216 211 207 201 195 202 210 208 202 200 202 203 199 201 204 206 210 209 205 204 203 204 204 204 204 206 207 208 208 207 209 213 216 218 219 218 217 218 217 216 216 215 212 210 210 210 204 200 205 212 220 226 214
245 237 220 217 226 233 230 222 223 222 222 225 226 227 233 241 245 241 225 224 235 244 247 245 230 220 226 228 220 214 217 223 223 214 208 204 200 198 203 205 200 198 201 201 199 196 197 200 205 208 209 207 205 203 203 203 202 203 205 206 207 207 207 208 211 215 217 219 217 215 217 216 214 216 215 214 210 204 209 212 204 209 216 218 222 218
231 239 236 214 215 229 229 215 222 222 216 221 223 221 225 226 231 240 234 223 227 232 238 243 239 233 230 229 223 208 207 221 222 211 208 202 200 200 197 193 192 195 202 202 198 196 196 199 204 206 207 207 205 204 202 201 201 202 204 205 206 207 207 207 209 214 216 217 215 214 215 215 212 214 215 215 213 205 207 215 210 212 219 220 218 214
219 228 236 225 206 218 225 214 214 215 207 214 219 217 219 218 218 225 231 234 230 225 232 240 242 242 238 226 216 209 207 214 214 214 210 199 199 198 187 188 194 194 198 200 198 199 200 203 205 207 207 206 205 204 202 201 201 201 203 205 206 206 206 206 207 212 215 215 214 214 214 214 212 213 215 215 215 211 208 213 216 217 221 223 221 215
222 218 222 227 209 202 217 221 216 214 211 214 218 221 223 222 223 222 222 230 232 233 235 236 237 241 243 228 207 206 203 202 208 216 210 194 198 200 187 189 197 194 195 199 199 201 203 205 206 205 206 206 206 205 202 202 202 201 203 205 205 205 205 205 206 209 214 214 214 214 213 213 213 213 215 216 216 215 212 214 218 221 223 224 224 221
229 229 207 217 222 207 209 215 216 221 222 213 212 221 224 221 225 233 239 238 230 233 238 234 230 226 243 265 245 215 199 199 204 208 205 193 204 212 195 185 190 191 194 197 198 200 202 204 205 203 205 206 206 206 203 202 202 202 203 205 205 206 205 205 206 208 213 215 213 214 213 213 214 214 216 217 217 217 216 217 220 221 221 222 224 225
226 233 205 206 218 216 210 207 209 220 230 214 209 219 222 223 226 234 248 248 234 231 232 232 234 222 225 243 243 234 214 208 208 202 196 190 207 219 193 177 185 187 190 197 198 200 202 203 204 203 203 204 205 206 205 203 203 203 204 205 205 206 206 206 207 209 212 214 213 214 214 214 215 215 216 218 218 217 218 219 221 223 221 219 222 225
230 240 213 205 213 212 206 206 208 216 230 233 213 210 216 225 226 228 245 243 234 240 235 231 238 234 230 223 212 218 218 211 211 210 199 183 200 220 185 171 183 186 187 195 196 199 204 203 204 204 202 203 204 205 206 205 205 205 204 205 205 205 207 207 208 210 211 213 213 213 214 215 215 217 218 219 220 219 218 219 221 223 223 221 220 223
229 248 221 208 213 203 194 205 214 212 221 236 236 212 209 218 217 218 236 233 227 239 239 233 235 233 240 234 201 208 211 199 195 207 215 197 193 213 189 173 180 187 187 191 192 196 204 204 204 205 202 202 204 206 207 206 206 206 205 206 207 207 208 209 210 211 211 212 213 212 214 215 216 218 218 219 220 221 218 219 221 223 224 225 222 222
227 246 238 210 204 192 184 200 216 209 211 227 242 232 219 220 218 219 230 229 226 235 238 234 235 231 236 241 228 220 207 191 189 194 212 217 202 201 194 181 182 185 182 182 187 194 202 205 206 206 204 203 205 206 206 205 205 204 204 205 207 208 208 209 210 211 211 211 212 213 214 215 217 218 219 219 220 222 221 218 220 223 225 228 225 223
223 233 244 219 197 193 194 199 208 211 204 212 229 236 228 215 214 224 228 222 218 233 242 235 235 233 228 237 244 242 201 175 192 198 193 217 222 214 212 196 183 179 176 178 185 191 195 200 203 206 207 205 205 206 203 202 202 201 201 204 206 206 208 210 211 211 211 212 212 213 214 215 217 218 218 219 220 222 223 220 221 224 226 229 229 227
219 225 233 233 211 203 206 200 203 211 211 209 216 227 233 223 212 220 224 218 211 222 238 239 244 238 222 225 237 246 209 170 194 213 185 198 222 233 242 214 173 172 181 183 185 186 188 193 197 203 211 210 207 205 201 199 200 199 198 202 204 204 207 211 213 212 211 212 212 213 215 216 217 218 218 218 220 222 223 222 222 224 225 227 229 231
213 223 224 234 234 224 217 203 198 206 213 220 219 216 227 232 226 225 221 217 217 222 229 236 246 244 223 217 224 241 237 186 194 212 198 198 206 223 241 218 172 175 188 184 180 183 187 193 196 201 211 213 210 207 204 200 199 198 197 199 202 204 208 212 213 213 212 211 212 213 213 215 217 219 219 219 221 223 223 224 224 224 224 225 226 229
203 223 222 227 237 244 239 215 197 201 209 221 226 216 218 225 229 235 230 217 220 226 228 227 230 235 238 251 244 241 242 209 195 192 208 217 202 210 228 210 174 175 181 177 177 184 191 196 197 200 206 211 211 208 205 203 201 200 198 198 200 204 209 210 210 213 213 211 212 212 212 213 216 219 220 222 224 225 225 225 225 225 225 224 224 226
189 216 220 218 221 227 243 227 198 198 208 215 223 223 222 222 226 235 238 232 228 227 230 232 226 222 221 232 254 245 221 216 202 186 209 233 211 208 210 176 164 172 174 174 178 183 192 197 197 200 204 206 207 207 206 205 203 202 201 199 198 202 206 206 206 210 214 214 213 212 212 213 215 218 222 223 226 229 228 224 224 227 227 225 224 227
192 203 209 216 220 208 222 231 200 191 209 215 217 224 229 226 224 228 236 239 238 230 230 235 240 232 205 196 220 237 222 202 186 190 225 241 220 204 183 151 157 170 170 172 180 184 191 198 198 200 202 203 203 205 206 206 204 204 203 200 198 200 203 202 201 205 211 214 213 212 214 214 215 219 223 224 226 228 227 222 220 225 228 227 226 226
207 207 206 214 230 223 218 231 219 200 207 214 212 216 226 231 229 226 228 235 238 240 240 238 249 260 239 204 203 222 229 214 174 176 218 244 220 202 211 170 160 169 172 172 179 183 188 197 201 201 201 202 202 204 206 206 204 204 204 202 199 200 201 201 200 202 207 212 212 213 216 216 216 220 223 225 226 225 223 220 218 221 225 228 227 226
224 221 212 210 224 236 235 229 227 218 213 218 217 213 218 227 232 230 227 230 232 236 240 234 238 258 260 249 228 212 220 236 226 181 195 235 238 219 229 207 164 164 171 172 175 181 187 195 200 200 200 201 201 202 205 205 205 205 205 204 200 200 201 200 200 201 204 207 209 211 216 218 219 221 222 226 227 224 222 220 219 220 222 225 226 226
234 230 223 216 215 226 236 238 238 233 221 221 221 217 216 219 229 236 234 230 228 236 241 226 219 235 247 255 260 248 224 231 229 192 187 207 227 229 216 190 166 157 161 169 176 183 188 193 197 196 198 201 200 201 204 205 204 206 206 205 202 200 200 201 200 201 203 205 206 210 215 218 219 221 222 224 226 225 223 221 220 221 223 225 227 226
239 236 234 236 223 218 226 233 241 245 238 232 229 225 221 218 221 230 239 237 231 236 244 238 230 236 236 242 254 261 265 262 239 198 193 196 208 219 201 186 198 187 165 174 183 187 191 193 195 197 198 201 202 202 204 205 204 204 205 205 203 200 200 201 200 200 202 204 205 208 214 216 217 219 220 220 223 225 224 222 220 221 223 225 228 227
227 233 228 241 244 229 224 223 229 239 247 250 247 239 236 234 224 216 225 237 239 239 240 238 238 242 239 238 244 247 256 265 264 237 222 206 202 213 213 208 212 200 183 189 189 190 197 196 194 199 199 201 205 204 205 206 205 204 203 204 203 201 200 201 200 199 201 203 204 207 211 215 216 217 217 217 220 223 223 221 219 220 222 223 227 229
215 227 226 228 238 241 237 226 219 225 236 244 247 242 240 245 240 223 215 225 237 246 244 236 231 233 231 230 235 236 235 246 256 259 253 235 215 217 217 215 213 195 183 191 195 192 197 197 196 200 202 205 207 206 206 207 206 203 201 202 203 200 200 202 200 198 200 202 203 205 209 214 215 215 215 216 217 220 221 220 219 220 221 221 225 230
213 217 221 225 230 233 239 238 226 223 230 233 235 237 239 246 249 245 238 229 227 232 244 248 245 246 244 234 234 237 232 233 238 244 253 252 237 230 225 219 221 209 191 194 203 203 198 197 199 201 203 207 208 208 209 208 207 205 202 202 201 198 198 202 201 198 198 200 201 203 207 212 212 212 213 214 216 217 218 219 219 220 222 221 223 227
209 215 215 220 233 230 229 237 238 232 233 231 229 233 238 246 247 242 239 237 231 223 222 230 236 240 246 248 246 246 247 252 248 236 245 257 255 254 252 234 228 228 213 198 200 205 200 195 199 203 205 208 210 211 210 207 208 207 204 202 199 196 197 200 199 196 196 197 199 202 205 208 208 209 210 211 213 213 213 216 218 219 220 219 221 226
200 212 217 215 227 230 224 227 231 230 234 242 247 241 237 245 252 254 252 248 244 241 235 228 237 238 232 233 243 255 263 268 268 251 245 256 260 257 258 252 238 234 230 208 196 198 198 196 198 203 208 210 210 209 206 205 207 206 203 202 198 194 197 199 196 194 195 196 198 201 203 204 205 207 207 208 210 210 211 214 217 219 219 218 220 226
203 207 215 214 219 225 219 220 227 237 241 243 249 252 245 238 241 249 255 253 251 252 260 314 319 288 278 242 228 228 236 246 255 255 244 248 259 259 254 253 249 244 241 230 210 199 197 201 205 207 211 210 204 203 204 204 204 202 202 202 197 193 196 196 194 193 194 196 198 199 200 201 202 202 204 205 206 206 209 213 217 219 219 218 219 225
225 225 221 214 213 217 220 223 232 246 245 238 239 245 252 250 242 244 253 256 261 265 275 328 328 330 345 312 250 235 241 235 231 239 237 236 246 253 255 257 257 256 253 248 243 233 219 215 214 213 213 208 200 200 202 201 200 199 199 198 194 192 193 194 193 193 194 195 196 196 197 198 199 199 201 202 202 203 208 213 217 219 219 218 217 220
237 241 239 231 218 209 215 227 231 233 232 225 212 181 112 80 19 19 351 286 297 316 337 359 341 335 339 325 323 342 316 266 227 225 231 232 234 238 247 253 256 259 259 254 254 251 234 218 212 211 212 210 204 200 199 197 196 197 196 194 191 189 190 192 191 191 191 192 193 194 194 195 196 197 198 199 199 200 204 208 212 215 217 220 218 220
242 235 242 253 233 205 207 222 226 230 231 209 176 137 112 148 68 41 318 265 360 14 10 12 354 339 344 337 337 353 344 301 286 245 234 235 234 233 241 247 246 248 250 249 251 250 234 214 208 208 207 205 201 197 196 195 194 195 194 191 188 187 187 188 189 190 190 189 189 190 189 189 191 193 195 195 193 193 196 198 200 205 213 218 218 222
242 228 220 237 237 216 214 222 226 234 223 177 167 160 154 167 136 84 236 239 26 18 10 12 0 352 358 348 337 334 318 309 315 298 281 264 243 237 245 250 247 242 238 239 245 244 227 209 204 201 198 199 199 195 193 191 190 193 193 188 184 184 184 184 185 187 186 182 179 180 180 182 186 188 188 187 184 186 192 195 196 203 212 216 216 221
237 230 216 221 228 224 222 225 233 237 201 164 178 193 154 153 192 222 221 193 14 358 360 359 348 351 353 342 338 332 314 312 309 301 298 291 274 262 258 259 268 262 244 239 241 229 205 193 192 194 195 199 197 191 188 188 188 190 190 184 180 181 182 183 180 177 175 171 170 172 173 178 184 184 183 183 184 189 196 198 201 209 213 215 216 218
223 224 221 219 219 220 224 230 236 233 207 192 197 191 175 191 216 217 126 38 8 356 1 355 346 352 352 339 331 323 314 315 312 304 297 293 297 304 285 257 261 295 274 244 225 204 190 182 182 190 194 193 190 187 185 184 185 187 186 182 179 178 178 177 173 169 167 165 163 164 167 172 176 177 180 185 189 191 195 199 206 214 215 214 215 214
221 217 221 219 215 216 220 223 228 232 219 211 203 188 188 210 169 51 32 30 29 15 7 4 0 357 348 337 328 319 315 318 318 310 300 293 298 315 304 251 227 235 292 228 188 184 186 182 183 188 187 182 182 182 181 181 182 183 181 178 174 171 169 167 166 164 163 161 160 160 163 167 170 174 181 189 193 193 196 203 212 218 217 213 208 204
269 234 221 219 220 223 224 223 228 248 206 193 184 154 111 89 72 52 26 33 44 26 15 11 6 359 349 338 328 319 313 317 323 319 310 305 304 306 300 256 208 197 193 158 153 164 172 174 177 178 175 174 176 176 178 180 180 177 174 171 167 164 162 161 160 160 160 159 160 161 164 168 172 178 185 190 191 192 197 208 214 215 219 221 211 199
316 329 295 252 235 204 215 257 90 80 123 156 147 125 108 91 72 55 45 50 48 30 24 19 8 5 4 356 347 341 335 332 338 344 345 356 12 27 246 233 182 177 170 160 157 156 156 162 167 168 169 171 172 172 175 177 174 169 166 164 161 158 156 156 158 160 161 161 163 165 167 169 174 180 185 188 190 191 198 209 214 214 219 220 207 194
296 323 336 309 292 64 48 34 54 67 78 114 121 116 111 100 82 72 68 64 63 59 54 48 36 29 28 23 14 9 5 359 357 359 2 5 8 4 316 291 211 159 156 157 158 157 156 157 160 162 162 163 165 168 169 169 167 162 157 155 154 153 154 156 158 159 160 160 162 166 168 172 178 183 185 189 192 194 201 210 212 214 217 208 191 187
296 325 349 357 333 25 28 18 39 43 38 94 111 91 83 90 92 89 86 80 77 75 66 59 54 48 42 37 30 25 22 18 13 11 12 13 16 14 298 277 266 183 159 157 157 159 162 162 161 160 158 158 161 161 159 159 159 155 151 151 152 154 155 155 155 156 158 160 163 167 172 178 182 181 179 182 185 189 196 201 199 200 203 195 187 189
300 319 331 360 34 76 108 335 52 62 51 52 74 75 72 79 80 77 80 84 84 80 72 64 59 55 49 42 37 36 36 31 24 19 16 14 17 30 36 228 218 185 144 154 157 159 160 159 158 156 152 150 150 152 154 155 153 149 148 150 152 152 151 151 154 157 160 162 164 168 174 178 179 174 171 173 176 180 183 180 178 185 191 192 193 195
278 297 328 359 37 97 139 239 77 82 69 57 64 72 73 76 75 71 72 75 77 76 73 68 64 60 56 50 46 45 44 38 32 29 28 24 21 27 46 100 144 154 155 138 140 144 145 145 144 141 137 136 140 146 149 148 143 143 146 148 149 150 151 153 156 159 161 162 163 166 169 171 169 166 167 170 174 178 176 170 174 186 194 196 200 201
272 301 357 360 261 122 123 181 73 91 84 55 53 62 71 76 77 76 73 70 68 68 69 69 66 63 59 54 50 49 48 44 41 37 32 26 24 38 56 69 100 128 137 129 119 122 126 128 128 127 126 128 133 136 134 132 133 138 142 142 144 149 153 154 155 157 158 156 154 157 158 157 158 163 168 174 177 180 180 178 181 191 198 200 204 208
326 38 16 4 173 116 83 80 84 97 99 68 45 50 62 70 74 76 75 73 70 66 65 65 63 60 57 52 50 49 47 45 45 43 37 30 25 39 60 74 88 100 111 118 116 114 114 114 116 118 118 120 124 124 123 126 131 134 137 139 143 148 152 152 152 152 151 151 154 156 150 149 155 163 169 177 182 186 188 187 187 195 202 203 206 211
Height
1451 1458 1460 1459 1457 1454 1452 1451 1451 1449 1450 1450 1447 1447 1448 1449 1449 1445 1442 1434 1435 1453 1459 1457 1461 1461 1461 1459 1455 1458 1461 1463 1466 1467 1469 1473 1476 1479 1483 1486 1489 1491 1494 1497 1500 1503 1505 1507 1509 1511 1513 1514 1517 1518 1519 1521 1522 1524 1526 1528 1530 1532 1534 1534 1535 1537 1539 1540 1542 1544 1545 1547 1548 1550 1551 1552 1554 1556 1557 1557 1557 1557 1559 1561 1561 1562
1450 1458 1455 1450 1448 1447 1446 1445 1446 1447 1448 1448 1448 1446 1444 1446 1446 1440 1436 1430 1430 1449 1457 1454 1459 1461 1459 1457 1456 1460 1463 1462 1462 1464 1466 1470 1473 1476 1480 1484 1487 1489 1492 1495 1498 1501 1503 1505 1507 1508 1510 1512 1514 1515 1516 1518 1520 1522 1524 1526 1527 1529 1531 1532 1533 1535 1537 1538 1540 1542 1543 1546 1547 1548 1550 1551 1552 1554 1555 1556 1556 1556 1558 1559 1560 1560
1453 1453 1446 1441 1440 1441 1442 1440 1443 1446 1447 1449 1448 1448 1447 1443 1441 1438 1432 1427 1429 1446 1455 1452 1459 1461 1455 1455 1458 1460 1461 1460 1460 1461 1464 1467 1470 1474 1477 1481 1484 1487 1489 1491 1494 1497 1500 1502 1504 1506 1507 1509 1511 1512 1514 1516 1517 1519 1521 1523 1524 1526 1528 1530 1531 1533 1535 1537 1538 1540 1542 1544 1546 1547 1548 1550 1551 1552 1553 1554 1554 1555 1557 1557 1558 1559
1453 1447 1438 1434 1435 1438 1442 1439 1441 1445 1445 1447 1447 1450 1450 1439 1440 1445 1436 1427 1429 1441 1448 1449 1458 1459 1454 1454 1456 1456 1456 1456 1457 1459 1461 1464 1468 1471 1474 1477 1480 1483 1485 1488 1490 1493 1497 1499 1501 1502 1504 1506 1508 1510 1511 1513 1514 1516 1517 1520 1521 1523 1526 1528 1530 1531 1533 1536 1537 1539 1541 1543 1545 1546 1547 1548 1549 1551 1552 1553 1553 1554 1555 1556 1557 1557
1443 1435 1429 1431 1433 1435 1441 1440 1440 1444 1447 1445 1442 1445 1446 1437 1437 1440 1434 1428 1431 1438 1441 1448 1464 1464 1456 1458 1456 1451 1452 1452 1453 1456 1458 1460 1464 1468 1470 1473 1477 1480 1482 1485 1487 1490 1493 1495 1497 1499 1501 1503 1505 1506 1508 1509 1511 1512 1514 1517 1519 1521 1523 1525 1527 1529 1532 1534 1536 1538 1540 1542 1543 1544 1545 1546 1548 1549 1551 1552 1552 1552 1554 1555 1555 1556
1435 1426 1424 1430 1432 1432 1438 1439 1437 1440 1446 1446 1439 1436 1436 1433 1431 1432 1432 1433 1444 1454 1445 1449 1476 1476 1457 1457 1456 1449 1449 1449 1449 1452 1455 1457 1460 1463 1467 1469 1473 1476 1479 1481 1484 1487 1489 1492 1495 1497 1498 1501 1502 1503 1505 1507 1508 1509 1511 1514 1516 1518 1520 1523 1525 1527 1530 1531 1533 1535 1537 1539 1540 1541 1543 1544 1546 1548 1549 1550 1551 1551 1552 1554 1554 1554
1427 1420 1419 1426 1431 1431 1435 1436 1432 1433 1444 1447 1434 1427 1430 1430 1430 1431 1432 1436 1450 1458 1444 1443 1472 1479 1461 1456 1452 1446 1449 1449 1448 1449 1451 1454 1457 1459 1462 1465 1468 1471 1474 1477 1480 1483 1486 1488 1491 1493 1495 1497 1499 1501 1503 1505 1507 1508 1509 1511 1514 1516 1517 1520 1522 1525 1527 1529 1531 1533 1534 1536 1537 1539 1541 1543 1544 1546 1547 1549 1549 1550 1551 1552 1553 1553
1420 1421 1420 1422 1427 1431 1434 1434 1428 1427 1440 1441 1425 1421 1428 1430 1431 1430 1430 1436 1440 1442 1441 1439 1455 1472 1469 1457 1446 1445 1451 1452 1450 1451 1450 1450 1453 1455 1458 1461 1464 1468 1470 1472 1476 1479 1482 1484 1487 1489 1491 1494 1497 1499 1501 1503 1505 1506 1507 1509 1511 1513 1515 1517 1520 1522 1524 1526 1528 1530 1532 1534 1536 1537 1539 1541 1543 1544 1546 1547 1548 1548 1549 1550 1551 1552
1414 1421 1421 1419 1426 1430 1428 1425 1421 1422 1433 1431 1418 1418 1422 1425 1429 1426 1427 1433 1431 1439 1451 1442 1444 1468 1472 1455 1444 1444 1450 1455 1453 1451 1449 1447 1449 1452 1454 1457 1461 1464 1467 1468 1471 1475 1478 1481 1484 1486 1489 1491 1495 1497 1498 1500 1502 1503 1505 1507 1508 1511 1513 1514 1517 1519 1521 1524 1526 1528 1530 1532 1534 1536 1538 1539 1541 1542 1544 1545 1547 1548 1548 1549 1550 1551
1411 1413 1413 1413 1421 1424 1421 1417 1415 1419 1425 1420 1415 1417 1418 1419 1423 1426 1430 1432 1432 1445 1455 1442 1440 1464 1472 1456 1448 1448 1450 1451 1448 1444 1442 1440 1443 1447 1451 1454 1457 1460 1462 1465 1468 1471 1475 1479 1483 1486 1488 1490 1492 1494 1496 1498 1500 1501 1503 1505 1506 1508 1510 1512 1514 1516 1519 1521 1524 1526 1527 1530 1532 1534 1536 1538 1539 1540 1542 1544 1546 1546 1546 1547 1548 1549
1407 1404 1405 1407 1412 1413 1411 1411 1409 1412 1416 1414 1417 1423 1424 1422 1419 1424 1427 1430 1443 1455 1450 1437 1433 1453 1469 1459 1447 1445 1443 1440 1439 1437 1436 1435 1437 1443 1447 1450 1452 1455 1458 1461 1465 1468 1472 1475 1480 1485 1487 1487 1489 1491 1493 1495 1497 1498 1500 1501 1503 1505 1508 1509 1511 1514 1516 1519 1521 1523 1525 1527 1529 1531 1533 1535 1536 1538 1540 1542 1543 1544 1544 1545 1546 1547
1410 1407 1404 1402 1404 1404 1406 1410 1408 1407 1409 1414 1420 1426 1434 1435 1429 1431 1431 1433 1454 1461 1445 1432 1426 1440 1460 1453 1435 1431 1429 1427 1429 1431 1431 1431 1433 1438 1442 1445 1448 1452 1455 1458 1462 1465 1468 1472 1475 1479 1482 1484 1486 1488 1489 1491 1493 1494 1496 1498 1500 1502 1504 1507 1509 1511 1513 1516 1518 1520 1522 1525 1527 1529 1531 1532 1534 1536 1537 1539 1541 1542 1542 1543 1544 1546
1414 1411 1403 1399 1401 1401 1407 1416 1415 1409 1409 1416 1422 1429 1443 1451 1450 1453 1449 1445 1454 1454 1437 1428 1428 1436 1443 1433 1420 1420 1420 1419 1418 1419 1422 1425 1428 1433 1437 1440 1444 1448 1451 1454 1457 1460 1463 1466 1468 1471 1475 1478 1480 1482 1485 1487 1489 1491 1492 1494 1496 1498 1500 1503 1506 1508 1510 1513 1515 1518 1520 1522 1524 1526 1528 1530 1532 1534 1535 1536 1538 1539 1540 1541 1542 1543
1420 1413 1403 1402 1402 1398 1403 1416 1423 1418 1415 1421 1424 1431 1444 1453 1463 1469 1461 1453 1451 1443 1429 1422 1428 1435 1431 1417 1409 1410 1411 1410 1410 1412 1416 1418 1423 1428 1432 1437 1441 1443 1447 1450 1453 1456 1458 1460 1463 1466 1469 1472 1475 1477 1481 1483 1485 1488 1489 1491 1492 1495 1497 1500 1502 1505 1507 1510 1512 1515 1517 1519 1522 1523 1525 1527 1529 1531 1533 1534 1535 1536 1538 1539 1540 1541
1426 1422 1408 1403 1402 1398 1400 1405 1412 1414 1416 1419 1415 1422 1434 1439 1451 1460 1456 1452 1449 1440 1431 1425 1429 1435 1429 1412 1398 1396 1399 1401 1406 1409 1412 1416 1420 1425 1428 1432 1437 1440 1443 1446 1448 1450 1452 1454 1458 1462 1465 1468 1470 1474 1477 1480 1482 1484 1486 1487 1489 1491 1494 1496 1499 1501 1504 1507 1510 1512 1514 1517 1519 1521 1523 1525 1527 1529 1530 1532 1533 1534 1536 1536 1538 1539
1419 1417 1398 1394 1393 1393 1399 1399 1399 1410 1418 1413 1407 1417 1427 1423 1429 1439 1438 1433 1433 1439 1437 1428 1423 1419 1412 1400 1388 1388 1393 1396 1402 1405 1408 1415 1418 1420 1423 1426 1432 1436 1438 1441 1443 1444 1447 1449 1453 1456 1460 1463 1467 1471 1474 1476 1477 1479 1481 1483 1485 1488 1490 1492 1495 1497 1500 1504 1506 1509 1511 1514 1516 1518 1520 1522 1524 1526 1528 1529 1531 1532 1533 1534 1535 1537
1414 1410 1390 1389 1390 1387 1395 1397 1396 1408 1415 1409 1409 1417 1414 1406 1413 1432 1435 1421 1424 1442 1437 1423 1418 1411 1406 1404 1393 1392 1397 1397 1399 1401 1403 1410 1414 1414 1417 1422 1428 1431 1434 1437 1439 1440 1442 1445 1449 1451 1455 1459 1462 1466 1469 1471 1473 1474 1477 1479 1482 1485 1487 1489 1491 1494 1497 1500 1503 1506 1508 1511 1512 1515 1517 1519 1521 1524 1525 1527 1528 1530 1531 1532 1533 1534
1403 1405 1387 1384 1393 1386 1385 1393 1394 1396 1402 1406 1410 1408 1403 1404 1409 1423 1436 1431 1434 1446 1433 1417 1420 1419 1419 1416 1400 1396 1401 1400 1400 1399 1399 1404 1409 1411 1412 1417 1423 1426 1429 1433 1434 1437 1440 1443 1446 1448 1451 1455 1458 1461 1464 1466 1469 1472 1474 1476 1478 1481 1483 1485 1488 1490 1493 1496 1499 1502 1505 1507 1509 1511 1514 1516 1519 1521 1523 1524 1525 1527 1528 1529 1531 1532
1392 1405 1391 1377 1386 1384 1380 1394 1402 1394 1392 1397 1397 1392 1399 1416 1421 1422 1432 1436 1441 1449 1438 1423 1420 1419 1418 1411 1399 1398 1400 1398 1399 1400 1400 1401 1403 1406 1409 1413 1418 1422 1424 1427 1429 1434 1437 1440 1444 1446 1448 1452 1454 1457 1459 1463 1466 1468 1471 1473 1475 1477 1479 1482 1484 1487 1490 1493 1496 1499 1501 1504 1506 1508 1511 1513 1516 1518 1520 1521 1522 1523 1525 1526 1528 1529
1386 1403 1400 1376 1373 1380 1382 1394 1404 1400 1393 1393 1393 1389 1392 1403 1414 1418 1419 1423 1434 1444 1440 1431 1425 1418 1406 1395 1391 1393 1390 1390 1396 1398 1399 1398 1397 1400 1406 1410 1413 1416 1417 1419 1422 1426 1431 1436 1440 1443 1447 1450 1452 1454 1457 1460 1463 1465 1467 1470 1472 1474 1477 1479 1481 1484 1487 1489 1492 1495 1498 1500 1503 1505 1508 1510 1513 1515 1516 1518 1519 1520 1521 1523 1525 1526
1385 1397 1403 1384 1371 1379 1387 1388 1393 1397 1398 1401 1404 1402 1397 1396 1402 1410 1410 1408 1420 1435 1437 1434 1431 1416 1394 1381 1382 1383 1381 1382 1388 1392 1394 1394 1394 1395 1399 1403 1407 1410 1411 1413 1417 1421 1426 1431 1437 1442 1446 1448 1451 1453 1455 1457 1459 1461 1464 1466 1468 1471 1473 1475 1478 1480 1483 1486 1489 1492 1494 1497 1500 1502 1505 1507 1509 1511 1512 1514 1516 1517 1518 1520 1522 1523
1385 1392 1399 1392 1380 1382 1383 1376 1378 1386 1390 1396 1401 1401 1400 1397 1401 1415 1418 1404 1404 1419 1425 1428 1430 1411 1383 1373 1375 1376 1376 1377 1380 1386 1389 1389 1393 1395 1394 1397 1401 1403 1406 1409 1414 1419 1423 1427 1432 1438 1443 1447 1449 1450 1451 1453 1455 1457 1460 1461 1464 1467 1469 1471 1473 1476 1479 1482 1485 1488 1490 1493 1496 1499 1502 1504 1506 1507 1509 1511 1512 1514 1516 1517 1519 1520
1376 1384 1393 1393 1383 1376 1371 1365 1368 1376 1378 1384 1389 1390 1393 1393 1395 1410 1418 1408 1402 1409 1411 1414 1421 1406 1376 1366 1370 1370 1370 1371 1374 1380 1383 1385 1391 1394 1393 1394 1396 1399 1404 1408 1413 1417 1420 1422 1425 1430 1437 1443 1445 1446 1448 1450 1451 1453 1455 1457 1460 1462 1464 1467 1470 1473 1476 1479 1481 1484 1487 1490 1492 1495 1498 1500 1502 1503 1505 1507 1509 1511 1513 1514 1516 1517
1372 1382 1391 1393 1384 1373 1366 1360 1361 1367 1374 1383 1384 1380 1385 1389 1387 1391 1396 1397 1403 1408 1406 1410 1418 1405 1377 1365 1367 1367 1367 1369 1371 1376 1380 1382 1385 1388 1389 1390 1394 1398 1402 1407 1412 1414 1415 1418 1421 1424 1429 1435 1440 1443 1445 1447 1448 1450 1452 1454 1456 1458 1460 1464 1467 1470 1472 1475 1478 1481 1484 1486 1489 1491 1494 1496 1497 1499 1501 1504 1506 1508 1510 1511 1512 1513
1372 1381 1388 1396 1398 1394 1387 1376 1370 1371 1376 1382 1382 1378 1379 1382 1384 1386 1385 1389 1400 1401 1398 1405 1414 1402 1379 1369 1369 1368 1368 1370 1369 1372 1378 1379 1380 1383 1385 1387 1392 1398 1401 1405 1408 1410 1412 1416 1418 1420 1424 1429 1434 1438 1441 1443 1446 1447 1448 1450 1452 1454 1457 1460 1464 1466 1468 1472 1475 1478 1480 1483 1485 1487 1489 1492 1493 1495 1498 1501 1503 1504 1506 1508 1509 1509
1367 1376 1381 1393 1402 1405 1403 1389 1377 1377 1378 1378 1379 1379 1378 1378 1382 1388 1390 1396 1402 1397 1391 1399 1405 1393 1374 1370 1373 1371 1370 1371 1369 1371 1377 1378 1378 1381 1384 1387 1391 1394 1398 1401 1404 1407 1410 1412 1415 1417 1421 1424 1429 1433 1436 1439 1442 1444 1446 1448 1450 1452 1454 1457 1461 1463 1465 1468 1471 1473 1476 1479 1481 1483 1485 1488 1490 1492 1495 1498 1500 1500 1502 1503 1505 1506
1363 1369 1372 1381 1386 1386 1387 1379 1366 1368 1376 1378 1378 1378 1379 1377 1376 1382 1391 1397 1397 1396 1395 1394 1393 1390 1380 1373 1374 1372 1369 1371 1371 1372 1375 1377 1377 1380 1384 1388 1390 1391 1394 1397 1400 1404 1407 1410 1413 1415 1417 1420 1424 1429 1432 1434 1438 1441 1443 1446 1448 1450 1452 1454 1457 1459 1461 1463 1466 1469 1472 1474 1477 1479 1481 1484 1486 1489 1492 1494 1496 1497 1498 1499 1501 1503
1363 1368 1366 1372 1376 1372 1370 1368 1362 1362 1369 1373 1373 1375 1376 1376 1375 1379 1386 1387 1386 1396 1401 1390 1385 1391 1386 1374 1372 1372 1370 1370 1370 1371 1373 1375 1378 1380 1383 1386 1389 1391 1393 1396 1399 1403 1405 1408 1410 1412 1415 1418 1422 1426 1429 1432 1435 1438 1441 1443 1446 1448 1449 1451 1454 1456 1458 1460 1463 1465 1467 1470 1473 1476 1479 1481 1483 1486 1488 1491 1493 1494 1495 1496 1498 1499
1364 1369 1363 1364 1370 1369 1365 1364 1361 1360 1363 1365 1366 1369 1371 1373 1376 1378 1378 1376 1379 1391 1394 1384 1383 1389 1384 1374 1370 1368 1367 1368 1368 1369 1372 1375 1378 1380 1382 1386 1389 1391 1392 1394 1398 1401 1403 1406 1408 1410 1413 1416 1419 1423 1426 1429 1432 1435 1438 1440 1443 1445 1446 1448 1450 1453 1455 1457 1459 1462 1464 1467 1470 1473 1476 1478 1480 1482 1485 1487 1490 1492 1493 1494 1495 1497
1362 1368 1363 1361 1365 1365 1365 1365 1362 1361 1363 1361 1359 1360 1363 1367 1369 1372 1373 1370 1372 1379 1378 1375 1380 1382 1376 1372 1368 1363 1363 1364 1365 1369 1371 1374 1377 1379 1382 1385 1388 1390 1392 1395 1397 1399 1402 1404 1405 1408 1411 1414 1417 1420 1422 1425 1427 1430 1433 1436 1439 1442 1443 1445 1447 1450 1451 1453 1456 1459 1461 1464 1467 1469 1472 1474 1476 1479 1481 1484 1487 1489 1490 1491 1492 1494
1363 1369 1364 1363 1368 1367 1362 1362 1363 1364 1366 1365 1360 1356 1358 1362 1363 1365 1368 1368 1370 1373 1370 1371 1379 1380 1371 1366 1365 1363 1363 1364 1365 1369 1371 1372 1374 1376 1379 1383 1384 1386 1389 1393 1395 1397 1400 1401 1403 1405 1408 1410 1413 1416 1419 1421 1423 1427 1430 1432 1435 1438 1440 1441 1444 1446 1448 1450 1453 1456 1458 1461 1463 1466 1468 1471 1473 1475 1478 1481 1483 1485 1488 1489 1490 1491
1362 1369 1365 1367 1377 1374 1361 1358 1360 1362 1366 1370 1367 1361 1359 1361 1358 1355 1358 1364 1369 1372 1372 1374 1380 1378 1368 1362 1363 1362 1363 1364 1365 1366 1368 1369 1370 1372 1374 1377 1380 1382 1385 1388 1390 1392 1395 1397 1399 1401 1404 1406 1409 1412 1416 1418 1421 1423 1425 1427 1430 1434 1437 1438 1439 1443 1445 1447 1450 1453 1455 1458 1460 1462 1465 1467 1470 1472 1475 1478 1480 1482 1484 1486 1488 1489
1358 1366 1367 1371 1380 1376 1365 1359 1358 1365 1375 1374 1364 1358 1358 1359 1356 1353 1355 1358 1359 1364 1372 1375 1373 1367 1362 1360 1363 1363 1363 1364 1364 1363 1366 1367 1368 1369 1371 1373 1376 1378 1380 1383 1385 1387 1389 1391 1394 1396 1399 1402 1405 1407 1410 1414 1417 1419 1421 1423 1427 1431 1434 1435 1436 1439 1442 1445 1447 1449 1452 1454 1456 1459 1462 1464 1467 1470 1472 1475 1477 1479 1481 1483 1485 1486
1355 1361 1365 1369 1376 1376 1368 1362 1365 1379 1385 1370 1351 1349 1354 1355 1355 1357 1358 1355 1351 1352 1359 1363 1361 1359 1359 1359 1361 1363 1362 1361 1361 1362 1364 1365 1366 1368 1370 1371 1373 1374 1376 1379 1381 1382 1385 1387 1390 1392 1394 1397 1400 1402 1406 1410 1414 1417 1420 1421 1424 1428 1431 1432 1433 1436 1439 1441 1444 1446 1449 1451 1453 1456 1459 1462 1464 1467 1469 1471 1473 1475 1478 1480 1482 1483
1354 1360 1364 1365 1370 1372 1367 1370 1385 1391 1377 1356 1345 1344 1347 1348 1349 1352 1352 1348 1346 1346 1348 1354 1357 1356 1355 1355 1357 1359 1359 1359 1360 1361 1362 1364 1365 1366 1368 1370 1371 1372 1374 1375 1377 1379 1382 1384 1386 1388 1390 1393 1396 1399 1403 1406 1410 1414 1418 1419 1421 1424 1427 1428 1429 1433 1436 1438 1441 1443 1446 1448 1451 1454 1457 1459 1462 1464 1466 1468 1470 1473 1475 1477 1479 1480
1349 1357 1360 1361 1365 1369 1370 1378 1389 1381 1359 1349 1350 1346 1344 1347 1350 1354 1357 1350 1344 1344 1348 1355 1358 1354 1353 1353 1352 1354 1357 1358 1358 1359 1361 1364 1363 1363 1365 1366 1368 1369 1371 1373 1375 1377 1377 1379 1381 1383 1386 1389 1393 1396 1399 1402 1406 1411 1414 1416 1418 1421 1423 1425 1426 1429 1432 1435 1438 1440 1443 1446 1449 1452 1454 1457 1459 1461 1463 1466 1468 1470 1472 1474 1476 1476
1344 1352 1355 1358 1361 1365 1372 1375 1374 1369 1362 1358 1355 1348 1347 1350 1350 1355 1362 1357 1347 1345 1349 1355 1358 1355 1354 1354 1352 1353 1355 1355 1356 1357 1358 1361 1362 1361 1362 1363 1365 1367 1368 1370 1373 1374 1374 1375 1377 1379 1381 1384 1388 1391 1394 1398 1402 1407 1410 1412 1414 1417 1419 1421 1423 1426 1429 1432 1435 1438 1441 1444 1447 1449 1452 1455 1457 1459 1461 1464 1466 1468 1470 1472 1474 1474
1343 1349 1354 1359 1358 1357 1369 1377 1375 1377 1374 1362 1353 1347 1344 1346 1346 1349 1361 1363 1353 1348 1350 1354 1357 1356 1356 1355 1355 1355 1357 1359 1360 1356 1353 1356 1358 1359 1361 1362 1363 1365 1366 1367 1370 1370 1370 1370 1371 1374 1376 1379 1382 1385 1389 1393 1398 1403 1406 1407 1410 1413 1415 1417 1420 1424 1427 1430 1433 1436 1439 1443 1445 1448 1450 1453 1455 1457 1460 1462 1464 1466 1468 1470 1472 1472
1346 1347 1352 1360 1357 1354 1366 1378 1378 1376 1368 1356 1351 1346 1343 1345 1344 1348 1366 1371 1357 1349 1351 1354 1356 1357 1357 1357 1356 1356 1362 1369 1366 1355 1350 1352 1354 1356 1359 1360 1360 1361 1363 1364 1365 1366 1365 1365 1366 1369 1371 1374 1378 1381 1384 1388 1394 1399 1402 1403 1405 1409 1411 1414 1418 1421 1425 1429 1432 1435 1438 1441 1443 1446 1448 1451 1453 1455 1457 1459 1462 1464 1466 1468 1470 1471
1352 1351 1354 1362 1362 1358 1364 1372 1369 1364 1358 1351 1348 1345 1344 1344 1345 1361 1383 1379 1358 1352 1356 1355 1356 1357 1357 1357 1357 1357 1362 1368 1363 1354 1350 1352 1353 1354 1356 1356 1355 1356 1357 1359 1359 1359 1359 1360 1361 1364 1367 1370 1374 1376 1380 1385 1390 1396 1398 1400 1402 1404 1407 1411 1415 1419 1423 1427 1430 1433 1436 1438 1441 1444 1446 1449 1451 1453 1455 1456 1459 1461 1462 1465 1468 1469
1355 1353 1354 1361 1364 1363 1366 1370 1366 1359 1352 1348 1346 1343 1342 1346 1355 1373 1384 1371 1356 1356 1358 1357 1358 1358 1357 1359 1359 1358 1358 1358 1356 1354 1352 1351 1351 1352 1353 1352 1351 1350 1351 1353 1354 1354 1354 1355 1358 1361 1365 1368 1371 1374 1378 1382 1388 1393 1397 1398 1399 1401 1404 1408 1413 1417 1422 1425 1428 1431 1434 1437 1440 1442 1445 1448 1449 1451 1453 1455 1456 1458 1460 1462 1465 1467
1358 1358 1357 1358 1361 1363 1365 1368 1370 1364 1349 1342 1344 1342 1343 1356 1369 1371 1364 1357 1357 1359 1358 1358 1359 1358 1359 1360 1360 1360 1359 1356 1355 1354 1352 1351 1350 1350 1352 1350 1348 1348 1350 1350 1350 1350 1352 1354 1358 1362 1365 1368 1371 1373 1376 1380 1385 1390 1394 1396 1396 1398 1401 1406 1410 1414 1418 1422 1425 1429 1432 1435 1438 1442 1445 1446 1448 1450 1452 1453 1454 1456 1458 1461 1462 1464
1354 1356 1358 1354 1354 1359 1363 1368 1375 1370 1349 1337 1343 1347 1348 1358 1365 1359 1353 1355 1359 1359 1360 1362 1361 1360 1362 1362 1361 1362 1361 1358 1356 1355 1352 1351 1348 1348 1352 1352 1348 1349 1352 1351 1349 1349 1350 1353 1357 1361 1364 1368 1370 1372 1375 1379 1383 1388 1393 1395 1395 1396 1400 1404 1408 1412 1416 1419 1423 1426 1429 1433 1436 1440 1442 1444 1446 1448 1450 1451 1453 1454 1457 1459 1460 1462
1354 1352 1355 1351 1348 1355 1363 1363 1361 1355 1342 1337 1346 1354 1354 1354 1355 1355 1356 1358 1359 1361 1364 1365 1365 1365 1365 1364 1363 1363 1362 1360 1359 1356 1353 1352 1349 1348 1354 1356 1351 1347 1350 1353 1353 1351 1350 1352 1356 1360 1364 1367 1369 1372 1375 1378 1383 1388 1392 1394 1394 1394 1397 1401 1405 1409 1413 1417 1420 1423 1427 1431 1434 1437 1439 1441 1443 1445 1447 1449 1452 1454 1456 1458 1459 1461
1364 1354 1355 1353 1346 1346 1351 1350 1345 1341 1340 1341 1348 1352 1353 1354 1355 1357 1359 1361 1362 1364 1365 1366 1368 1368 1367 1367 1366 1365 1364 1363 1362 1359 1356 1354 1352 1351 1354 1357 1352 1346 1346 1350 1353 1353 1353 1355 1357 1360 1364 1367 1369 1372 1375 1378 1382 1386 1390 1391 1392 1392 1394 1399 1403 1407 1411 1414 1418 1422 1426 1429 1432 1434 1436 1438 1440 1441 1443 1447 1450 1453 1455 1457 1459 1460
1367 1355 1352 1353 1348 1344 1347 1348 1344 1343 1345 1347 1350 1351 1351 1354 1357 1358 1361 1364 1365 1367 1368 1369 1369 1368 1368 1369 1369 1368 1367 1365 1364 1362 1359 1356 1355 1354 1356 1357 1355 1350 1348 1349 1351 1353 1355 1357 1360 1362 1364 1366 1369 1371 1375 1379 1381 1383 1386 1389 1390 1391 1393 1397 1402 1407 1411 1414 1418 1422 1425 1428 1430 1432 1434 1436 1436 1437 1439 1443 1447 1451 1455 1457 1458 1460
1368 1359 1354 1354 1353 1355 1363 1361 1352 1351 1353 1353 1354 1354 1353 1356 1360 1362 1364 1366 1367 1369 1370 1370 1370 1369 1369 1369 1370 1370 1369 1367 1365 1364 1362 1359 1358 1358 1359 1361 1358 1354 1351 1350 1351 1353 1355 1358 1361 1363 1364 1366 1368 1371 1375 1378 1381 1383 1385 1388 1390 1392 1395 1398 1403 1407 1412 1415 1419 1422 1424 1426 1429 1431 1434 1435 1436 1437 1439 1441 1444 1449 1453 1455 1457 1459
1372 1364 1358 1356 1357 1363 1373 1371 1359 1357 1360 1360 1360 1361 1361 1362 1365 1365 1367 1369 1370 1371 1372 1371 1371 1372 1371 1371 1372 1371 1370 1369 1367 1366 1364 1362 1361 1359 1360 1361 1359 1357 1357 1355 1352 1352 1355 1358 1360 1362 1365 1367 1369 1372 1375 1379 1382 1385 1387 1389 1390 1393 1396 1400 1404 1408 1412 1415 1418 1420 1424 1426 1428 1430 1433 1435 1437 1439 1440 1442 1444 1448 1451 1453 1455 1456
1374 1367 1360 1360 1363 1366 1372 1372 1364 1361 1365 1366 1366 1368 1368 1369 1370 1370 1371 1372 1372 1373 1373 1373 1373 1375 1375 1375 1374 1372 1372 1372 1371 1370 1368 1366 1364 1363 1361 1360 1359 1360 1362 1361 1357 1355 1356 1359 1361 1364 1367 1369 1371 1374 1377 1381 1385 1386 1387 1388 1391 1394 1397 1401 1405 1408 1412 1415 1418 1421 1424 1427 1428 1429 1432 1434 1436 1438 1440 1442 1444 1446 1449 1451 1453 1454
1374 1370 1364 1366 1371 1372 1372 1373 1369 1367 1372 1374 1373 1374 1375 1374 1374 1374 1374 1374 1374 1375 1376 1376 1376 1377 1378 1378 1377 1375 1375 1375 1374 1373 1372 1371 1371 1369 1365 1363 1362 1362 1364 1367 1366 1364 1363 1364 1365 1367 1369 1372 1376 1379 1381 1384 1385 1386 1387 1389 1392 1395 1398 1402 1405 1408 1412 1415 1419 1422 1424 1426 1427 1429 1432 1434 1436 1438 1439 1441 1443 1445 1448 1450 1452 1453
1374 1371 1369 1373 1377 1374 1372 1372 1370 1369 1373 1377 1378 1378 1379 1378 1377 1377 1377 1377 1378 1378 1378 1378 1379 1379 1379 1379 1379 1378 1378 1379 1378 1376 1375 1377 1378 1376 1372 1370 1369 1367 1369 1372 1372 1370 1369 1369 1370 1371 1373 1377 1380 1382 1383 1384 1385 1386 1388 1391 1394 1397 1400 1402 1405 1409 1412 1416 1419 1421 1423 1425 1427 1430 1432 1435 1437 1438 1440 1441 1443 1445 1447 1449 1450 1452